Location: Brusselsch Zeekanaal
(50.8667°N, 4.3667°E)
Time: 12:53:08
(UTC+00:00)

NOSS 2-1 (D) - Visible Passes

Search period start: 14 February 2026 00:00
Search period end: 24 February 2026 00:00
Orbit: 374 x 1674 km, 63.3° (Epoch: 13 February)

Date Brightness Start Highest point End Pass type
(mag) Time Alt. Az. Time Alt. Az. Time Alt. Az.
14 Feb 5.7 03:54:38 16° ENE 03:54:38 16° ENE 03:55:32 10° ENE visible
14 Feb 3.7 05:40:19 23° WNW 05:41:28 29° NW 05:44:09 10° NNE visible
15 Feb 3.9 04:34:09 39° NE 04:34:09 39° NE 04:36:07 10° NE visible
15 Feb 4.7 06:20:27 10° WNW 06:22:14 14° NNW 06:23:59 10° NNE visible
16 Feb 3.8 05:13:36 28° NW 05:13:36 28° NW 05:16:13 10° NNE visible
17 Feb 5.3 04:07:17 18° NE 04:07:17 18° NE 04:08:11 10° NE visible
17 Feb 4.7 05:52:57 11° NW 05:54:18 14° NNW 05:56:01 10° NNE visible
18 Feb 4.4 04:46:36 23° N 04:46:36 23° N 04:48:14 10° NNE visible
19 Feb 4.8 05:25:51 14° NW 05:26:19 14° NNW 05:28:00 10° NNE visible
20 Feb 5.2 04:19:24 16° NNE 04:19:24 16° NNE 04:20:13 10° NNE visible
21 Feb 4.9 04:58:35 14° NNW 04:58:35 14° NNW 04:59:58 10° NNE visible
22 Feb 5.9 03:52:04 10° NNE 03:52:04 10° NNE 03:52:09 10° NNE visible
23 Feb 5.3 04:31:10 12° N 04:31:10 12° N 04:31:51 10° N visible
